| time (UTC) | temp F | wind direction | speed knots | gust knots | rain 1hr in | rain 24hr in | rain mn in | humidity % | barometer mb |
| 20260504214555 | 53 | 330 | 17.4 | 23.5 | 0.00 | 0.00 | 0.00 | 32 | 1014.7 |
| 20260504213102 | 53 | 337 | 14.8 | 23.5 | 0.00 | 0.00 | 0.00 | 32 | 1014.8 |
| 20260504211548 | 54 | 11 | 13.9 | 23.5 | 0.00 | 0.00 | 0.00 | 33 | 1014.9 |
| 20260504210056 | 53 | 330 | 18.2 | 28.7 | 0.00 | 0.00 | 0.00 | 33 | 1014.9 |
| 20260504204554 | 55 | 360 | 17.4 | 26.1 | 0.00 | 0.00 | 0.00 | 32 | 1014.8 |
| 20260504203108 | 55 | 352 | 17.4 | 22.6 | 0.00 | 0.00 | 0.00 | 31 | 1014.6 |
| 20260504201559 | 55 | 342 | 16.5 | 25.2 | 0.00 | 0.00 | 0.00 | 32 | 1014.6 |
| 20260504200056 | 54 | 324 | 16.5 | 27.8 | 0.00 | 0.00 | 0.00 | 34 | 1014.6 |
| 20260504194550 | 53 | 336 | 12.2 | 23.5 | 0.00 | 0.00 | 0.00 | 35 | 1014.5 |
| 20260504193104 | 53 | 329 | 13.9 | 20.9 | 0.00 | 0.00 | 0.00 | 35 | 1014.7 |
| 20260504191559 | 55 | 338 | 16.5 | 23.5 | 0.00 | 0.00 | 0.00 | 34 | 1014.8 |
| 20260504190053 | 54 | 322 | 13.9 | 24.3 | 0.00 | 0.00 | 0.00 | 35 | 1014.8 |
| 20260504184558 | 53 | 339 | 12.2 | 20.0 | 0.00 | 0.00 | 0.00 | 36 | 1014.7 |
| 20260504183053 | 54 | 319 | 12.2 | 18.2 | 0.00 | 0.00 | 0.00 | 35 | 1014.7 |
| 20260504181600 | 54 | 352 | 14.8 | 22.6 | 0.00 | 0.00 | 0.00 | 36 | 1014.7 |
| 20260504180054 | 54 | 344 | 12.2 | 20.0 | 0.00 | 0.00 | 0.00 | 36 | 1014.8 |
| 20260504174549 | 53 | 311 | 14.8 | 21.7 | 0.00 | 0.00 | 0.00 | 38 | 1014.9 |
| 20260504173052 | 52 | 309 | 12.2 | 20.0 | 0.00 | 0.00 | 0.00 | 41 | 1015.0 |
| 20260504171555 | 52 | 329 | 10.4 | 19.1 | 0.00 | 0.00 | 0.00 | 41 | 1014.9 |
| 20260504081551 | 48 | 32 | 13.9 | 21.7 | 0.00 | 0.00 | 0.00 | 54 | 1014.6 |
| 20260504044604 | 57 | 37 | 15.6 | 20.0 | 0.00 | 0.00 | 0.00 | 38 | 1009.3 |
| 20260504043056 | 57 | 39 | 12.2 | 15.6 | 0.00 | 0.00 | 0.00 | 37 | 1009.0 |
| 20260504041552 | 58 | 38 | 10.4 | 16.5 | 0.00 | 0.00 | 0.00 | 36 | 1008.9 |
| 20260504040105 | 58 | 42 | 10.4 | 17.4 | 0.00 | 0.00 | 0.00 | 35 | 1008.6 |
| 20260504034611 | 59 | 41 | 13.9 | 16.5 | 0.00 | 0.00 | 0.00 | 35 | 1008.2 |
| 20260504033056 | 59 | 42 | 12.2 | 19.1 | 0.00 | 0.00 | 0.00 | 35 | 1007.9 |
| 20260504031551 | 60 | 40 | 12.2 | 18.2 | 0.00 | 0.00 | 0.00 | 34 | 1007.6 |
| 20260504030118 | 62 | 37 | 13.0 | 17.4 | 0.00 | 0.00 | 0.00 | 32 | 1007.1 |
| 20260504024555 | 62 | 42 | 8.7 | 12.2 | 0.00 | 0.00 | 0.00 | 28 | 1006.9 |
| 20260504023057 | 63 | 22 | 3.5 | 7.0 | 0.00 | 0.00 | 0.00 | 24 | 1006.7 |
| 20260504021553 | 66 | 18 | 7.0 | 9.6 | 0.00 | 0.00 | 0.00 | 22 | 1006.8 |
| 20260504020105 | 67 | 15 | 7.8 | 13.0 | 0.00 | 0.00 | 0.00 | 21 | 1006.8 |
| 20260504014548 | 69 | 11 | 9.6 | 14.8 | 0.00 | 0.00 | 0.00 | 20 | 1006.9 |
| 20260504013055 | 71 | 352 | 10.4 | 14.8 | 0.00 | 0.00 | 0.00 | 20 | 1006.9 |
| 20260504011553 | 71 | 352 | 12.2 | 16.5 | 0.00 | 0.00 | 0.00 | 20 | 1006.9 |
| 20260504010053 | 72 | 329 | 10.4 | 14.8 | 0.00 | 0.00 | 0.00 | 20 | 1007.0 |
| 20260504004558 | 73 | 345 | 11.3 | 16.5 | 0.00 | 0.00 | 0.00 | 19 | 1007.1 |
| 20260504003056 | 73 | 352 | 8.7 | 16.5 | 0.00 | 0.00 | 0.00 | 19 | 1007.2 |
| 20260504001606 | 73 | 330 | 11.3 | 13.9 | 0.00 | 0.00 | 0.00 | 19 | 1007.3 |
| 20260504000058 | 74 | 11 | 9.6 | 14.8 | 0.00 | 0.00 | 0.00 | 18 | 1007.4 |
| 20260503234556 | 74 | 325 | 9.6 | 15.6 | 0.00 | 0.00 | 0.00 | 18 | 1007.4 |
| 20260503233049 | 73 | 316 | 7.8 | 17.4 | 0.00 | 0.00 | 0.00 | 18 | 1007.5 |
| 20260503231557 | 73 | 324 | 11.3 | 16.5 | 0.00 | 0.00 | 0.00 | 18 | 1007.7 |
| 20260503230058 | 74 | 330 | 11.3 | 19.1 | 0.00 | 0.00 | 0.00 | 18 | 1007.8 |
| 20260503224553 | 74 | 311 | 8.7 | 18.2 | 0.00 | 0.00 | 0.00 | 18 | 1007.8 |
| 20260503223057 | 74 | 352 | 12.2 | 17.4 | 0.00 | 0.00 | 0.00 | 17 | 1008.0 |
| 20260503221559 | 74 | 342 | 9.6 | 17.4 | 0.00 | 0.00 | 0.00 | 18 | 1008.2 |
| 20260503220055 | 73 | 292 | 10.4 | 17.4 | 0.00 | 0.00 | 0.00 | 18 | 1008.5 |